SCP
0 0 0 0 0 0 0 0 0 0 0 0 0 0 0 0 0 0 0 0 0 0 0 0 0 0 0 0 0 0 0 0 0 0 0 0 0 0 0 0 0 0 0 0
0 0 0 0 0 0 0 0 0 0 0 0 0 0 0 0 0 0 0 0 0 0 0 0 0 0 0 0 0 0 0 0 0 0 0 0 0 0 0 0 0 0 0 0
0 0 0 0 0 0 0 0 0 0 0 0 0 0 0 0 0 0 0 0 0 0 0 0 0 0 0 0 0 0 0 0 0 0 0 0 0 0 0 0 0 0 0 0
0 0 0 0 0 0 0 0 0 0 0 0 0 0 0 0 0 0 0 0 0 0 0 0 0 0 0 0 0 0 0 0 0 0 0 0 0 0 0 0 0 0 0 0
0 0 0 0 0 0 0 0 0 0 0 0 0 0 0 0 0 0 0 0 0 0 0 0 0 0 0 0 0 0 0 0 0 0 0 0 0 0 0 0 0 0 0 0
0 0 0 0 0 0 0 0 0 0 0 0 0 0 0 0 0 0 0 0 0 0 0 0 0 0 0 0 0 0 0 0 0 0 0 0 0 0 0 0 0 0 0 0
0 0 0 0 0 0 0 0 0 0 0 0 0 0 0 0 0 0 0 0 0 0 0 0 0 0 0 0 0 0 0 0 0 0 0 0 0 0 0 0 0 0 0 0
0 0 0 0 0 0 0 0 0 0 0 0 0 0 0 0 0 0 0 0 0 0 0 0 0 0 0 0 0 0 0 0 0 0 0 0 0 0 0 0 0 0 0 0
0 0 0 0 0 0 0 0 0 0 0 0 0 0 0 0 0 0 0 0 0 0 0 0 0 0 0 0 0 0 0 0 0 0 0 0 0 0 0 0 0 0 0 0
0 0 0 0 0 0 0 0 0 0 0 0 0 0 0 0 0 0 0 0 0 0 0 0 0 0 0 0 0 0 0 0 0 0 0 0 0 0 0 0 0 0 0 0
0 0 0 0 0 0 0 0 0 0 0 0 0 0 0 0 0 0 0 0 0 0 0 0 0 0 0 0 0 0 0 0 0 0 0 0 0 0 0 0 0 0 0 0
0 0 0 0 0 0 0 0 0 0 0 0 0 0 0 0 0 0 0 0 0 0 0 0 0 0 0 0 0 0 0 0 0 0 0 0 0 0 0 0 0 0 0 0
0 0 0 0 0 0 0 0 0 0 0 0 0 0 0 0 0 0 0 0 0 0 0 0 0 0 0 0 0 0 0 0 0 0 0 0 0 0 0 0 0 0 0 0
0 0 0 0 0 0 0 0 0 0 0 0 0 0 0 0 0 0 0 0 0 0 0 0 0 0 0 0 0 0 0 0 0 0 0 0 0 0 0 0 0 0 0 0
0 0 0 0 0 0 0 0 0 0 0 0 0 0 0 0 0 0 0 0 0 0 0 0 0 0 0 0 0 0 0 0 0 0 0 0 0 0 0 0 0 0 0 0
0 0 0 0 0 0 0 0 0 0 0 0 0 0 0 0 0 0 0 0 0 0 0 0 0 0 0 0 0 0 0 0 0 0 0 0 0 0 0 0 0 0 0 0
0 0 0 0 0 0 0 0 0 0 0 0 0 0 0 0 0 0 0 0 0 0 0 0 0 0 0 0 0 0 0 0 0 0 0 0 0 0 0 0 0 0 0 0
0 0 0 0 0 0 0 0 0 0 0 0 0 0 0 0 0 0 0 0 0 0 0 0 0 0 0 0 0 0 0 0 0 0 0 0 0 0 0 0 0 0 0 0
0 0 0 0 0 0 0 0 0 0 0 0 0 0 0 0 0 0 0 0 0 0 0 0 0 0 0 0 0 0 0 0 0 0 0 0 0 0 0 0 0 0 0 0
0 0 0 0 0 0 0 0 0 0 0 0 0 0 0 0 0 0 0 0 0 0 0 0 0 0 0 0 0 0 0 0 0 0 0 0 0 0 0 0 0 0 0 0
0 0 0 0 0 0 0 0 0 0 0 0 0 0 0 0 0 0 0 0 0 0 0 0 0 0 0 0 0 0 0 0 0 0 0 0 0 0 0 0 0 0 0 0
0 0 0 0 0 0 0 0 0 0 0 0 0 0 0 0 0 0 0 0 0 0 0 0 0 0 0 0 0 0 0 0 0 0 0 0 0 0 0 0 0 0 0 0
0 0 0 0 0 0 0 0 0 0 0 0 0 0 0 0 0 0 0 0 0 0 0 0 0 0 0 0 0 0 0 0 0 0 0 0 0 0 0 0 0 0 0 0
0 0 0 0 0 0 0 0 0 0 0 0 0 0 0 0 0 0 0 0 0 0 0 0 0 0 0 0 0 0 0 0 0 0 0 0 0 0 0 0 0 0 0 0
0 0 0 0 0 0 0 0 0 0 0 0 0 0 0 0 0 0 0 0 0 0 0 0 0 0 0 0 0 0 0 0 0 0 0 0 0 0 0 0 0 0 0 0
0 0 0 0 0 0 0 0 0 0 0 0 0 0 0 0 0 0 0 0 0 0 0 0 0 0 0 0 0 0 0 0 0 0 0 0 0 0 0 0 0 0 0 0
0 0 0 0 0 0 0 0 0 0 0 0 0 0 0 0 0 0 0 0 0 0 0 0 0 0 0 0 0 0 0 0 0 0 0 0 0 0 0 0 0 0 0 0
Wind_Speed_500mb
21 4 14 16 29 34 34 48 26 41 27 39 46 43 55 43 39 39 44 44 39 34 29 24 18 14 12 10 11 12 14 18 22 27 32 36 40 45 49 54 58 60 61 62
9 1 10 11 26 40 49 45 38 24 27 25 60 45 44 49 51 49 48 45 40 35 29 22 16 12 9 7 12 17 23 28 32 37 42 46 49 51 54 56 58 61 63 66
14 12 3 14 40 38 36 42 47 36 33 22 35 43 54 58 58 58 56 52 44 36 27 23 17 10 6 9 13 17 24 32 38 43 46 50 54 58 61 63 65 66 68 72
9 13 16 9 7 14 37 17 32 23 18 47 60 78 54 62 66 60 58 51 42 35 28 20 13 6 1 6 12 17 24 33 40 46 51 53 56 60 64 68 69 71 75 79
10 19 9 10 12 16 24 31 30 28 19 26 32 48 25 56 58 59 54 44 35 27 21 17 12 8 10 14 18 24 31 38 45 51 54 57 59 62 65 68 70 74 77 81
7 14 23 2 7 11 10 22 25 37 32 33 48 24 17 53 52 51 45 35 29 24 19 15 14 15 18 22 27 33 39 44 49 53 57 60 62 62 63 67 71 74 76 76
12 6 11 8 10 17 16 8 15 42 47 52 23 12 40 60 57 49 39 31 27 21 17 17 19 21 25 30 34 38 43 47 51 55 59 61 65 65 68 70 71 72 72 71
6 10 18 21 14 13 5 8 23 37 51 48 32 34 62 66 55 42 34 32 27 22 20 21 23 27 32 35 38 42 46 50 54 59 62 66 68 68 69 71 74 75 73 73
17 12 3 40 2 22 19 27 28 39 50 63 52 56 72 59 44 38 33 29 25 22 22 26 30 34 37 40 43 47 52 55 58 60 61 62 67 70 71 70 72 74 74 71
7 11 9 38 16 23 21 30 36 46 61 58 60 62 58 46 38 31 27 26 23 22 24 30 33 36 40 43 49 53 55 57 61 65 66 66 68 69 71 70 69 69 67 65
6 1 5 29 32 36 35 36 46 53 57 56 56 50 46 41 35 29 24 22 22 22 23 28 32 35 41 46 51 57 61 64 66 69 70 72 71 71 70 67 62 63 59 57
14 27 16 24 56 44 44 50 53 58 53 46 43 43 40 34 29 24 21 20 21 21 21 25 31 36 43 49 54 60 64 66 68 70 71 72 73 74 69 68 57 57 51 49
8 22 41 24 57 56 50 52 54 52 49 51 45 36 32 28 26 23 22 20 18 21 25 27 32 40 47 52 56 59 64 67 70 71 70 69 69 68 71 65 54 49 46 44
31 25 25 24 36 57 52 55 54 51 47 43 39 35 31 28 25 24 22 21 22 21 26 33 37 40 46 49 53 56 60 63 65 68 70 71 70 68 64 63 61 48 41 42
37 43 28 40 41 60 62 61 58 56 53 50 40 33 30 30 29 27 27 25 24 27 32 34 37 40 44 48 52 54 58 62 66 69 70 70 69 66 61 57 53 48 41 39
33 41 36 39 47 53 64 62 65 65 59 50 41 36 35 34 31 30 29 27 28 30 34 37 39 41 45 49 53 55 57 58 61 65 67 65 63 60 56 50 47 45 43 40
58 47 55 53 58 63 64 66 70 69 64 56 45 41 41 39 36 35 32 32 34 36 37 38 40 43 48 51 53 55 57 58 58 60 59 59 56 53 49 46 45 43 41 40
65 68 75 79 74 66 66 66 67 69 65 55 46 46 46 42 38 36 35 36 36 37 37 38 42 45 48 51 52 54 55 55 54 52 51 49 48 45 44 41 42 40 38 37
69 70 77 83 81 75 66 64 65 66 67 61 55 53 49 44 41 39 38 36 36 35 35 37 41 44 46 49 51 50 49 49 48 46 46 44 41 38 36 35 36 37 36 33
85 87 89 88 85 79 74 68 67 73 72 64 61 59 52 47 44 39 37 36 35 34 34 37 38 41 44 46 47 46 45 43 42 39 37 36 35 33 30 29 31 32 32 31
94 97 99 98 93 86 82 74 72 78 75 70 65 57 51 47 41 38 36 35 33 34 35 38 37 40 43 43 41 40 39 36 34 33 30 28 28 26 25 25 26 28 28 28
91 99 100 96 88 82 73 70 69 72 71 66 60 53 48 43 40 37 34 31 31 32 33 34 37 39 40 37 34 33 32 31 30 27 25 24 23 23 22 22 23 24 25 26
51 69 71 66 70 72 68 65 66 65 60 54 48 45 42 39 36 30 29 28 28 29 29 29 34 34 33 31 31 30 28 27 27 27 25 23 24 23 22 21 22 23 25 27
37 45 51 58 64 64 64 63 59 54 49 46 44 41 36 32 29 26 25 25 25 25 26 28 29 27 26 27 28 28 29 29 29 29 28 28 28 28 28 28 29 30 31 33
30 36 46 54 58 56 53 52 51 48 46 44 40 35 31 27 25 23 22 23 23 22 25 24 23 23 26 26 27 28 31 32 31 34 33 34 34 35 36 37 37 38 40 42
23 33 41 46 48 50 48 48 47 46 44 40 34 29 25 22 20 20 22 21 21 21 21 22 24 26 28 31 31 32 33 35 36 37 38 39 40 41 41 42 42 41 42 43
28 36 41 44 44 44 44 43 40 38 34 30 26 23 21 21 22 21 20 21 22 22 23 25 27 30 33 34 35 36 37 38 39 42 42 42 42 42 44 45 46 46 47 48
Wind_Direction_500mb
236 283 195 214 191 189 203 222 209 237 218 184 183 183 183 172 168 170 173 172 169 164 161 156 148 134 113 85 53 30 11 1 354 349 342 337 331 328 325 324 322 321 319 317
195 36 209 214 207 200 209 218 228 235 228 195 184 176 173 176 178 181 180 177 175 172 169 161 146 128 113 64 21 7 358 350 344 338 332 329 326 325 324 323 322 322 321 320
215 167 168 269 217 203 215 222 221 223 221 171 173 188 184 184 186 185 184 181 180 175 170 169 164 144 86 28 8 357 345 339 334 330 327 323 321 321 321 320 320 320 320 320
126 157 209 269 42 229 218 223 218 240 161 174 186 195 189 190 188 189 185 182 178 177 174 171 168 165 271 332 328 329 329 329 328 325 321 319 318 318 317 316 317 318 319 319
179 206 308 197 191 168 186 237 212 215 167 176 177 171 184 196 197 190 183 179 177 173 175 181 193 234 275 294 304 312 317 320 321 319 315 312 312 314 314 313 313 313 314 314
168 193 221 28 169 165 131 260 193 182 165 158 153 183 185 190 186 178 176 177 176 176 183 203 236 263 280 291 301 308 312 313 312 309 307 307 308 308 308 308 308 308 309 310
178 216 279 222 166 158 167 251 169 192 169 164 176 205 180 170 166 168 170 173 175 185 210 238 254 267 280 290 296 303 306 308 307 307 307 307 307 307 308 308 308 310 312 314
139 186 249 149 126 196 172 144 165 175 181 169 173 149 162 163 158 163 168 172 183 206 232 250 263 277 284 287 294 300 305 308 308 307 307 306 306 306 307 308 309 310 312 313
189 201 138 181 226 215 177 162 170 168 173 174 154 156 161 159 161 163 170 183 202 223 244 259 269 278 282 286 294 301 305 306 306 304 306 306 306 306 306 307 307 309 310 312
140 187 199 194 206 183 179 164 158 162 160 162 152 154 159 161 165 174 188 201 218 239 258 269 275 282 288 292 298 301 303 304 304 304 305 305 304 305 305 305 304 303 305 308
277 97 122 197 200 185 182 171 157 159 163 165 162 160 166 171 179 188 200 218 235 249 261 271 280 287 292 298 300 301 303 304 304 301 302 302 302 302 301 300 299 296 297 301
226 176 183 202 200 196 187 177 173 168 165 169 173 173 175 182 191 200 211 228 243 253 263 275 286 294 296 300 302 301 301 301 300 301 302 302 302 300 300 300 298 291 288 286
228 214 209 221 209 201 193 187 185 185 185 180 179 187 189 197 204 216 227 234 248 270 281 287 294 296 297 300 301 302 302 301 301 301 302 303 305 305 304 302 299 289 283 278
223 205 197 194 193 202 200 194 191 188 186 190 196 195 202 211 219 229 236 251 263 269 281 289 295 299 303 304 304 305 305 305 305 304 304 304 304 303 302 301 299 294 281 276
217 205 222 213 202 201 202 198 196 197 199 200 201 208 217 226 229 233 247 255 261 274 283 292 297 299 302 303 303 303 301 300 299 299 300 301 301 300 299 296 291 286 280 273
219 221 218 218 218 208 206 206 210 207 208 211 216 223 227 227 228 240 250 255 271 282 286 290 295 299 302 302 302 302 301 299 298 298 298 298 299 299 297 292 285 277 275 274
222 217 221 224 217 214 214 220 222 220 220 220 225 229 227 223 230 240 246 261 269 273 281 290 295 302 305 306 307 307 306 304 302 299 298 298 298 297 294 288 278 271 271 272
226 236 238 235 224 219 219 220 225 228 226 223 232 228 223 228 238 239 248 259 266 275 285 295 302 305 308 309 310 310 309 307 304 301 298 296 295 293 291 283 274 266 264 266
235 238 238 239 236 233 236 238 235 228 222 227 230 225 226 232 233 238 249 256 266 276 286 293 298 304 306 308 308 309 308 305 304 302 300 299 296 292 286 277 269 263 259 257
232 233 235 237 237 237 240 242 236 224 223 227 223 221 227 231 232 240 248 258 267 274 282 290 296 302 305 306 306 306 305 304 303 302 301 299 296 291 284 273 264 257 253 251
235 234 235 236 235 234 235 234 231 225 223 221 219 222 228 229 234 241 249 258 268 276 285 293 299 302 302 302 302 301 301 302 303 304 302 299 295 289 280 271 261 254 249 245
238 237 237 237 235 233 229 227 224 221 218 215 214 218 222 225 231 239 247 257 270 279 287 292 295 297 296 296 296 296 295 296 298 300 301 301 297 289 279 269 260 254 250 246
255 247 242 239 234 229 221 215 212 210 209 211 214 216 217 223 230 237 247 259 267 274 280 286 290 291 287 290 292 292 290 290 291 293 296 296 294 291 287 279 272 266 261 258
259 245 234 225 218 212 207 201 199 200 202 206 208 211 216 222 230 241 253 263 269 277 283 285 286 286 282 286 290 290 290 290 290 289 289 289 287 284 281 279 276 273 270 268
245 231 217 209 204 202 199 199 198 199 200 200 203 207 214 223 231 244 253 264 270 274 275 280 281 281 283 284 286 288 289 289 289 287 286 284 282 282 280 279 277 277 276 275
221 210 203 199 197 196 196 198 198 194 193 195 197 205 214 225 236 244 248 253 258 263 269 276 279 281 285 288 289 289 290 291 291 289 288 287 285 283 281 279 280 280 281 283
186 188 188 187 184 184 186 188 189 190 189 193 200 207 217 225 233 238 245 251 258 266 273 279 282 284 286 288 289 290 291 291 291 290 288 288 287 288 288 287 286 286 284 282
Wind_Speed_850mb
21 4 14 16 29 34 34 48 26 41 27 39 46 43 55 43 39 39 44 44 39 34 29 24 18 14 12 10 11 12 14 18 22 27 32 36 40 45 49 54 58 60 61 62
9 1 10 11 26 40 49 45 38 24 27 25 60 45 44 49 51 49 48 45 40 35 29 22 16 12 9 7 12 17 23 28 32 37 42 46 49 51 54 56 58 61 63 66
14 12 3 14 40 38 36 42 47 36 33 22 35 43 54 58 58 58 56 52 44 36 27 23 17 10 6 9 13 17 24 32 38 43 46 50 54 58 61 63 65 66 68 72
9 13 16 9 7 14 37 17 32 23 18 47 60 78 54 62 66 60 58 51 42 35 28 20 13 6 1 6 12 17 24 33 40 46 51 53 56 60 64 68 69 71 75 79
10 19 9 10 12 16 24 31 30 28 19 26 32 48 25 56 58 59 54 44 35 27 21 17 12 8 10 14 18 24 31 38 45 51 54 57 59 62 65 68 70 74 77 81
7 14 23 2 7 11 10 22 25 37 32 33 48 24 17 53 52 51 45 35 29 24 19 15 14 15 18 22 27 33 39 44 49 53 57 60 62 62 63 67 71 74 76 76
12 6 11 8 10 17 16 8 15 42 47 52 23 12 40 60 57 49 39 31 27 21 17 17 19 21 25 30 34 38 43 47 51 55 59 61 65 65 68 70 71 72 72 71
6 10 18 21 14 13 5 8 23 37 51 48 32 34 62 66 55 42 34 32 27 22 20 21 23 27 32 35 38 42 46 50 54 59 62 66 68 68 69 71 74 75 73 73
17 12 3 40 2 22 19 27 28 39 50 63 52 56 72 59 44 38 33 29 25 22 22 26 30 34 37 40 43 47 52 55 58 60 61 62 67 70 71 70 72 74 74 71
7 11 9 38 16 23 21 30 36 46 61 58 60 62 58 46 38 31 27 26 23 22 24 30 33 36 40 43 49 53 55 57 61 65 66 66 68 69 71 70 69 69 67 65
6 1 5 29 32 36 35 36 46 53 57 56 56 50 46 41 35 29 24 22 22 22 23 28 32 35 41 46 51 57 61 64 66 69 70 72 71 71 70 67 62 63 59 57
14 27 16 24 56 44 44 50 53 58 53 46 43 43 40 34 29 24 21 20 21 21 21 25 31 36 43 49 54 60 64 66 68 70 71 72 73 74 69 68 57 57 51 49
8 22 41 24 57 56 50 52 54 52 49 51 45 36 32 28 26 23 22 20 18 21 25 27 32 40 47 52 56 59 64 67 70 71 70 69 69 68 71 65 54 49 46 44
31 25 25 24 36 57 52 55 54 51 47 43 39 35 31 28 25 24 22 21 22 21 26 33 37 40 46 49 53 56 60 63 65 68 70 71 70 68 64 63 61 48 41 42
37 43 28 40 41 60 62 61 58 56 53 50 40 33 30 30 29 27 27 25 24 27 32 34 37 40 44 48 52 54 58 62 66 69 70 70 69 66 61 57 53 48 41 39
33 41 36 39 47 53 64 62 65 65 59 50 41 36 35 34 31 30 29 27 28 30 34 37 39 41 45 49 53 55 57 58 61 65 67 65 63 60 56 50 47 45 43 40
58 47 55 53 58 63 64 66 70 69 64 56 45 41 41 39 36 35 32 32 34 36 37 38 40 43 48 51 53 55 57 58 58 60 59 59 56 53 49 46 45 43 41 40
65 68 75 79 74 66 66 66 67 69 65 55 46 46 46 42 38 36 35 36 36 37 37 38 42 45 48 51 52 54 55 55 54 52 51 49 48 45 44 41 42 40 38 37
69 70 77 83 81 75 66 64 65 66 67 61 55 53 49 44 41 39 38 36 36 35 35 37 41 44 46 49 51 50 49 49 48 46 46 44 41 38 36 35 36 37 36 33
85 87 89 88 85 79 74 68 67 73 72 64 61 59 52 47 44 39 37 36 35 34 34 37 38 41 44 46 47 46 45 43 42 39 37 36 35 33 30 29 31 32 32 31
94 97 99 98 93 86 82 74 72 78 75 70 65 57 51 47 41 38 36 35 33 34 35 38 37 40 43 43 41 40 39 36 34 33 30 28 28 26 25 25 26 28 28 28
91 99 100 96 88 82 73 70 69 72 71 66 60 53 48 43 40 37 34 31 31 32 33 34 37 39 40 37 34 33 32 31 30 27 25 24 23 23 22 22 23 24 25 26
51 69 71 66 70 72 68 65 66 65 60 54 48 45 42 39 36 30 29 28 28 29 29 29 34 34 33 31 31 30 28 27 27 27 25 23 24 23 22 21 22 23 25 27
37 45 51 58 64 64 64 63 59 54 49 46 44 41 36 32 29 26 25 25 25 25 26 28 29 27 26 27 28 28 29 29 29 29 28 28 28 28 28 28 29 30 31 33
30 36 46 54 58 56 53 52 51 48 46 44 40 35 31 27 25 23 22 23 23 22 25 24 23 23 26 26 27 28 31 32 31 34 33 34 34 35 36 37 37 38 40 42
23 33 41 46 48 50 48 48 47 46 44 40 34 29 25 22 20 20 22 21 21 21 21 22 24 26 28 31 31 32 33 35 36 37 38 39 40 41 41 42 42 41 42 43
28 36 41 44 44 44 44 43 40 38 34 30 26 23 21 21 22 21 20 21 22 22 23 25 27 30 33 34 35 36 37 38 39 42 42 42 42 42 44 45 46 46 47 48
Wind_Direction_850mb
236 283 195 214 191 189 203 222 209 237 218 184 183 183 183 172 168 170 173 172 169 164 161 156 148 134 113 85 53 30 11 1 354 349 342 337 331 328 325 324 322 321 319 317
195 36 209 214 207 200 209 218 228 235 228 195 184 176 173 176 178 181 180 177 175 172 169 161 146 128 113 64 21 7 358 350 344 338 332 329 326 325 324 323 322 322 321 320
215 167 168 269 217 203 215 222 221 223 221 171 173 188 184 184 186 185 184 181 180 175 170 169 164 144 86 28 8 357 345 339 334 330 327 323 321 321 321 320 320 320 320 320
126 157 209 269 42 229 218 223 218 240 161 174 186 195 189 190 188 189 185 182 178 177 174 171 168 165 271 332 328 329 329 329 328 325 321 319 318 318 317 316 317 318 319 319
179 206 308 197 191 168 186 237 212 215 167 176 177 171 184 196 197 190 183 179 177 173 175 181 193 234 275 294 304 312 317 320 321 319 315 312 312 314 314 313 313 313 314 314
168 193 221 28 169 165 131 260 193 182 165 158 153 183 185 190 186 178 176 177 176 176 183 203 236 263 280 291 301 308 312 313 312 309 307 307 308 308 308 308 308 308 309 310
178 216 279 222 166 158 167 251 169 192 169 164 176 205 180 170 166 168 170 173 175 185 210 238 254 267 280 290 296 303 306 308 307 307 307 307 307 307 308 308 308 310 312 314
139 186 249 149 126 196 172 144 165 175 181 169 173 149 162 163 158 163 168 172 183 206 232 250 263 277 284 287 294 300 305 308 308 307 307 306 306 306 307 308 309 310 312 313
189 201 138 181 226 215 177 162 170 168 173 174 154 156 161 159 161 163 170 183 202 223 244 259 269 278 282 286 294 301 305 306 306 304 306 306 306 306 306 307 307 309 310 312
140 187 199 194 206 183 179 164 158 162 160 162 152 154 159 161 165 174 188 201 218 239 258 269 275 282 288 292 298 301 303 304 304 304 305 305 304 305 305 305 304 303 305 308
277 97 122 197 200 185 182 171 157 159 163 165 162 160 166 171 179 188 200 218 235 249 261 271 280 287 292 298 300 301 303 304 304 301 302 302 302 302 301 300 299 296 297 301
226 176 183 202 200 196 187 177 173 168 165 169 173 173 175 182 191 200 211 228 243 253 263 275 286 294 296 300 302 301 301 301 300 301 302 302 302 300 300 300 298 291 288 286
228 214 209 221 209 201 193 187 185 185 185 180 179 187 189 197 204 216 227 234 248 270 281 287 294 296 297 300 301 302 302 301 301 301 302 303 305 305 304 302 299 289 283 278
223 205 197 194 193 202 200 194 191 188 186 190 196 195 202 211 219 229 236 251 263 269 281 289 295 299 303 304 304 305 305 305 305 304 304 304 304 303 302 301 299 294 281 276
217 205 222 213 202 201 202 198 196 197 199 200 201 208 217 226 229 233 247 255 261 274 283 292 297 299 302 303 303 303 301 300 299 299 300 301 301 300 299 296 291 286 280 273
219 221 218 218 218 208 206 206 210 207 208 211 216 223 227 227 228 240 250 255 271 282 286 290 295 299 302 302 302 302 301 299 298 298 298 298 299 299 297 292 285 277 275 274
222 217 221 224 217 214 214 220 222 220 220 220 225 229 227 223 230 240 246 261 269 273 281 290 295 302 305 306 307 307 306 304 302 299 298 298 298 297 294 288 278 271 271 272
226 236 238 235 224 219 219 220 225 228 226 223 232 228 223 228 238 239 248 259 266 275 285 295 302 305 308 309 310 310 309 307 304 301 298 296 295 293 291 283 274 266 264 266
235 238 238 239 236 233 236 238 235 228 222 227 230 225 226 232 233 238 249 256 266 276 286 293 298 304 306 308 308 309 308 305 304 302 300 299 296 292 286 277 269 263 259 257
232 233 235 237 237 237 240 242 236 224 223 227 223 221 227 231 232 240 248 258 267 274 282 290 296 302 305 306 306 306 305 304 303 302 301 299 296 291 284 273 264 257 253 251
235 234 235 236 235 234 235 234 231 225 223 221 219 222 228 229 234 241 249 258 268 276 285 293 299 302 302 302 302 301 301 302 303 304 302 299 295 289 280 271 261 254 249 245
238 237 237 237 235 233 229 227 224 221 218 215 214 218 222 225 231 239 247 257 270 279 287 292 295 297 296 296 296 296 295 296 298 300 301 301 297 289 279 269 260 254 250 246
255 247 242 239 234 229 221 215 212 210 209 211 214 216 217 223 230 237 247 259 267 274 280 286 290 291 287 290 292 292 290 290 291 293 296 296 294 291 287 279 272 266 261 258
259 245 234 225 218 212 207 201 199 200 202 206 208 211 216 222 230 241 253 263 269 277 283 285 286 286 282 286 290 290 290 290 290 289 289 289 287 284 281 279 276 273 270 268
245 231 217 209 204 202 199 199 198 199 200 200 203 207 214 223 231 244 253 264 270 274 275 280 281 281 283 284 286 288 289 289 289 287 286 284 282 282 280 279 277 277 276 275
221 210 203 199 197 196 196 198 198 194 193 195 197 205 214 225 236 244 248 253 258 263 269 276 279 281 285 288 289 289 290 291 291 289 288 287 285 283 281 279 280 280 281 283
186 188 188 187 184 184 186 188 189 190 189 193 200 207 217 225 233 238 245 251 258 266 273 279 282 284 286 288 289 290 291 291 291 290 288 288 287 288 288 287 286 286 284 282